Location: Congrier
(47.8099°N, 1.1170°W)
Time: 06:05:28
(UTC+00:00)

NOSS 3-3 (C) - Pass Details

Date: 12 August 2024
Orbit: 731 x 1483 km, 63.4° (Epoch: 06 September)

Event Time Altitude Azimuth Distance (km) Brightness Sun altitude
Exits shadow 02:58:32 - 165° (SSE) 2,519 5.9 -16.9°
Reaches altitude 10° 02:59:10 10° 161° (SSE) 2,334 5.7 -16.8°
Maximum altitude 03:03:15 23° 110° (ESE) 1,730 5.6 -16.4°
Drops below altitude 10° 03:07:47 10° 61° (ENE) 2,626 7.5 -15.8°
Sets 03:11:02 0° 48° (NE) 3,708 9.0 -15.4°
